This is the latest recevied weather packets stored in our database for station/object S59MA-6. If no packets are shown the sender has not sent any weather packets the latest 10 day(s).
| Time | Temp. | Humidity | Pressure | Rain* | Wind** | Luminosity | Snow |
|---|---|---|---|---|---|---|---|
| 1787824541 | 26.67° C | 66% | 1006.2 hPa | 7.11 mm | - | - | - |
| 1787824241 | 26.67° C | 66% | 1006.8 hPa | 253.75 mm | - | - | - |
| 1787823941 | 26.67° C | 66% | 1006.1 hPa | 253.75 mm | - | - | - |
| 1787823641 | 26.67° C | 66% | 1006.1 hPa | 253.75 mm | - | - | - |
| 1787823342 | 26.67° C | 68% | 1006 hPa | 253.75 mm | - | - | - |
| 1787823041 | 26.67° C | 68% | 1006.5 hPa | 253.75 mm | - | - | - |
| 1787822741 | 26.11° C | 68% | 1005.5 hPa | 253.75 mm | - | - | - |
| 1787822441 | 26.11° C | 68% | 1004.2 hPa | 253.75 mm | - | - | - |
| 1787822141 | 26.11° C | 68% | 1006.7 hPa | 132.08 mm | - | - | - |
| 1787821841 | 26.11° C | 69% | 1007.1 hPa | 0 mm | - | - | - |
| 1787821241 | 26.11° C | 68% | 1006.6 hPa | 0 mm | - | - | - |
| 1787820942 | 26.11° C | 69% | 1006.7 hPa | 0 mm | - | - | - |
| 1787820641 | 26.11° C | 69% | 1006.6 hPa | 0 mm | - | - | - |
| 1787820341 | 25.56° C | 70% | 1006.4 hPa | 0 mm | - | - | - |
| 1787820041 | 25.56° C | 70% | 1006.5 hPa | 0 mm | - | - | - |
| 1787819741 | 25° C | 69% | 1006.5 hPa | 0 mm | - | - | - |
| 1787819442 | 25° C | 69% | 1006.4 hPa | 0 mm | - | - | - |
| 1787819141 | 25° C | 70% | 1006.4 hPa | 0 mm | - | - | - |
| 1787818841 | 25° C | 70% | 1006.6 hPa | 0 mm | - | - | - |
| 1787818542 | 25° C | 70% | 1006.5 hPa | 0 mm | - | - | - |
| 1787818241 | 25° C | 70% | 1006.6 hPa | 0 mm | - | - | - |
| 1787817641 | 24.44° C | 71% | 1006.7 hPa | 132.08 mm | - | - | - |
| 1787817341 | 24.44° C | 72% | 1006.8 hPa | 132.08 mm | - | - | - |
| 1787817041 | 24.44° C | 72% | 1006.5 hPa | 249.17 mm | - | - | - |
| 1787816742 | 24.44° C | 72% | 1006.9 hPa | 249.17 mm | - | - | - |
* Rain latest hour (hover to see other rain measurements)
** Current wind speed in m/s (hover to see current wind gust speed)